This demonstration page uses our WeatherBlox Daily Observations layout. Learn more.

Left ArrowRight Arrow

Hourly Observations for June 14, 2017

Temp ( °F °C ) Dew Point ( °F °C ) Humidity (%) Winds ( mph kmh ) Pressure ( in mb ) Visibility ( mi km ) Precip ( " mm )
12:28 am 00:28 Mostly Clear with Light Rain 75 24 63 17 65 65 ENE 12 19 29.73 1007 10 16 0.00 0.00
12:45 am 00:45 Mostly Clear with Light Rain and Nearby Thunderstorms 75 24 64 18 69 69 W 18 30 29.79 1009 10 16 0.00 0.00
12:48 am 00:48 Partly Cloudy with Thunderstorms 75 24 64 18 69 69 WNW 15 24 29.78 1009 7 11 0.00 0.00
12:56 am 00:56 Partly Cloudy with Strong Thunderstorms 72 22.1 65 18.3 79 79 NW 6 9 29.79 1009 7 11 0.04 1.02
1:11 am 01:11 Mostly Clear with Light Rain and Nearby Thunderstorms 70 21 64 18 83 83 N 6 9 29.77 1008 10 16 0.00 0.00
1:17 am 01:17 Mostly Clear with Nearby Thunderstorms 70 21 66 19 88 88 NNW 7 11 29.76 1008 10 16 0.00 0.00
1:47 am 01:47 Clear with Thunderstorms 72 22 64 18 78 78 Calm 29.78 1009 10 16 0.00 0.00
1:54 am 01:54 Clear with Thunderstorms 70 21 64 18 83 83 ESE 5 7 29.77 1008 10 16 0.00 0.00
1:56 am 01:56 Clear with Thunderstorms 70 21 65 18.2 84 84 E 6 9 29.77 1008 10 16 0.03 0.76
2:16 am 02:16 Clear 68 20 64 18 88 88 E 5 7 29.73 1007 10 16 0.00 0.00
2:56 am 02:56 Clear 68 20.2 65 18.1 88 88 ESE 9 15 29.70 1006 10 16 0.00 0.03
3:56 am 03:56 Clear 69 20.4 64 17.8 85 85 E 9 15 29.71 1006 10 16 0.00 0.00
4:56 am 04:56 Mostly Clear 70 20.9 64 17.5 81 81 E 8 13 29.74 1007 10 16 0.00 0.00
5:01 am 05:01 Mostly Clear with Light Rain 70 21 64 18 83 83 E 8 13 29.75 1008 10 16 0.00 0.00
5:14 am 05:14 Mostly Clear with Thunderstorms 70 21 64 18 83 83 Calm 29.75 1008 10 16 0.00 0.00
5:21 am 05:21 Mostly Clear with Strong Thunderstorms 70 21 64 18 83 83 E 8 13 29.78 1009 4 6 0.00 0.00
5:22 am 05:22 Partly Cloudy with Strong Thunderstorms 70 21 64 18 83 83 E 12 19 29.77 1008 3 5 0.00 0.00
5:26 am 05:26 Partly Cloudy with Strong Thunderstorms 68 20 66 19 94 94 E 14 22 29.76 1008 2 3 0.00 0.00
5:29 am 05:29 Partly Cloudy with Strong Thunderstorms 68 20 66 19 94 94 E 13 20 29.76 1008 5 8 0.00 0.00
5:37 am 05:37 Mostly Clear with Rain and Nearby Thunderstorms 68 20 64 18 88 88 ENE 13 20 29.74 1007 10 16 0.00 0.00
5:42 am 05:42 Mostly Clear with Rain and Nearby Thunderstorms 68 20 63 17 83 83 NE 13 20 29.73 1007 10 16 0.00 0.00
5:51 am 05:51 Sunny 68 20 63 17 83 83 NNE 10 17 29.71 1006 10 16 0.00 0.00
5:56 am 05:56 Sunny 68 19.9 62 16.9 83 83 NE 12 19 29.72 1007 10 16 0.23 5.84
6:31 am 06:31 Partly Cloudy with Thunderstorms 68 20 64 18 88 88 NW 15 24 29.78 1009 8 13 0.00 0.00
6:37 am 06:37 Partly Cloudy with Thunderstorms 66 19 64 18 94 94 WNW 15 24 29.79 1009 9 14 0.00 0.00
6:56 am 06:56 Partly Cloudy with Strong Thunderstorms 67 19.3 64 18 92 92 WNW 5 7 29.80 1009 3 5 0.25 6.35
7:01 am 07:01 Mostly Cloudy with Strong Thunderstorms 66 19 64 18 94 94 S 8 13 29.85 1011 1 2 0.00 0.00
7:11 am 07:11 Mostly Cloudy with Strong Thunderstorms 66 19 64 18 94 94 N 6 9 29.80 1009 4 6 0.00 0.00
7:25 am 07:25 Mostly Cloudy with Rain 66 19 63 17 88 88 NW 6 9 29.80 1009 5 8 0.00 0.00
7:52 am 07:52 Partly Cloudy with Thunderstorms 66 19 63 17 88 88 SSW 7 11 29.88 1012 8 13 0.00 0.00
7:56 am 07:56 Partly Cloudy with Thunderstorms 66 18.9 63 17.2 90 90 ESE 3 6 29.88 1012 8 13 0.42 10.67
8:07 am 08:07 Partly Cloudy with Rain and Scattered Storms 66 19 63 17 88 88 E 15 24 29.80 1009 7 11 0.00 0.00
8:30 am 08:30 Sunny 66 19 61 16 83 83 ENE 17 28 29.74 1007 10 16 0.00 0.00
8:56 am 08:56 Mostly Cloudy 65 18.5 61 16.1 86 86 SE 12 19 29.77 1008 10 16 0.06 1.52
9:56 am 09:56 Partly Cloudy 69 20.4 63 17 81 81 SE 10 17 29.77 1008 10 16 0.01 0.25
10:08 am 10:08 Mostly Sunny 70 21 63 17 78 78 SE 12 19 29.77 1008 10 16 0.00 0.00
10:56 am 10:56 Sunny 74 23.5 65 18.4 73 73 SSE 8 13 29.71 1006 10 16 0.00 0.00
11:56 am 11:56 Mostly Sunny 80 26.8 65 18.6 61 61 S 10 17 29.74 1007 10 16 0.00 0.00
12:56 pm 12:56 Partly Cloudy 82 27.9 66 18.8 58 58 S 13 20 29.80 1009 10 16 0.00 0.00
12:58 pm 12:58 Mostly Cloudy with Drizzle 82 28 66 19 58 58 S 10 17 29.80 1009 10 16 0.00 0.00
1:06 pm 13:06 Mostly Cloudy 82 28 66 19 58 58 S 12 19 29.80 1009 10 16 0.00 0.00
1:19 pm 13:19 Mostly Cloudy 82 28 66 19 58 58 S 12 19 29.80 1009 10 16 0.00 0.00
1:56 pm 13:56 Mostly Cloudy 85 29.3 66 18.7 53 53 SSW 10 17 29.79 1009 10 16 0.00 0.03
2:56 pm 14:56 Mostly Sunny 85 29.6 67 19.6 55 55 SSW 8 13 29.79 1009 10 16 0.00 0.00
3:56 pm 15:56 Mostly Sunny 86 30.2 68 19.8 54 54 SSW 9 15 29.78 1008 10 16 0.00 0.00
4:56 pm 16:56 Mostly Sunny 88 31 66 19 49 49 SW 12 19 29.76 1008 10 16 0.00 0.00
5:56 pm 17:56 Sunny 88 30.9 62 16.8 43 43 W 13 20 29.75 1008 10 16 0.00 0.00
6:56 pm 18:56 Sunny 86 30.2 62 16.6 44 44 W 12 19 29.75 1008 10 16 0.00 0.00
7:56 pm 19:56 Sunny 84 28.9 63 17.1 49 49 W 8 13 29.78 1008 10 16 0.00 0.00
8:56 pm 20:56 Sunny 80 26.9 61 16.2 52 52 W 7 11 29.80 1009 10 16 0.00 0.00
9:56 pm 21:56 Clear 67 19.4 62 16.8 85 85 Calm 29.80 1009 10 16 0.00 0.00
10:06 pm 22:06 Hazy 66 19 63 17 88 88 Calm 29.80 1009 3 4 0.00 0.00
10:56 pm 22:56 Clear 65 18.6 60 15.8 84 84 Calm 29.81 1010 10 16 0.00 0.00
11:56 pm 23:56 Clear 63 17.2 61 15.9 92 92 Calm 29.81 1010 10 16 0.00 0.00

Powered by AerisWeather